RH
23 24 18 14 27 30 30 28 25 20 29 31 31 37 36 40 47 45 79 54 35 20 20 28 19 26 46 45 37 36 35 55 82 97 85 57 64 62 64 64 53 55 50 50
39 38 17 33 38 37 35 27 22 31 36 36 28 30 40 42 46 38 49 45 31 23 26 25 22 19 21 45 60 65 61 43 42 47 62 54 52 57 55 48 42 40 43 48
40 15 27 40 40 36 31 26 22 28 30 30 28 41 42 48 66 58 63 52 47 15 19 32 34 32 24 25 36 46 53 56 53 55 56 63 75 65 38 33 34 34 34 56
46 37 36 39 38 35 26 23 25 28 30 28 29 34 44 50 56 51 58 56 36 14 14 24 32 36 38 36 40 47 48 51 58 56 32 28 23 25 26 26 28 36 54 49
33 38 38 36 35 35 26 25 29 35 34 31 29 34 29 33 55 49 60 53 38 25 18 21 28 32 39 41 40 40 42 44 46 45 41 49 60 34 38 40 45 52 55 78
38 36 34 35 32 34 30 31 30 35 36 45 32 33 34 35 38 46 43 56 49 33 28 25 30 32 30 34 39 44 44 46 48 51 54 58 88 65 64 59 62 71 93 89
38 37 35 33 32 34 31 30 40 59 59 60 38 38 30 28 27 31 37 52 49 46 46 42 30 29 31 29 28 31 36 42 46 51 52 56 74 71 73 72 70 75 77 85
45 39 35 32 31 32 32 31 41 73 86 65 38 39 32 27 28 30 31 31 44 44 47 50 49 45 31 27 29 30 34 40 45 48 52 56 64 62 65 78 73 74 80 86
37 38 34 30 31 32 34 34 33 50 63 72 47 35 35 32 29 28 28 36 33 43 49 50 52 53 54 52 28 28 34 39 44 49 52 51 57 70 68 76 88 80 88 83
38 35 33 31 30 32 33 35 35 42 77 96 46 45 36 34 29 24 28 29 30 39 47 48 47 48 48 49 53 54 40 43 49 49 49 50 49 61 78 78 88 86 89 86
36 38 35 33 35 31 34 33 33 38 45 64 59 40 32 35 29 29 24 30 38 40 40 50 55 58 54 55 58 62 65 94 81 70 70 67 73 70 80 87 94 98 95 96
36 37 40 36 35 32 32 34 31 40 46 49 58 41 34 34 32 28 27 27 29 29 34 33 34 51 57 62 68 66 64 66 51 52 67 79 76 97 62 96 95 87 72 83
39 42 41 37 34 36 31 30 34 34 38 46 59 48 38 36 32 30 30 29 31 32 32 33 30 24 32 52 65 63 62 56 53 61 82 84 93 86 63 57 57 54 58 59
39 43 41 43 38 36 38 36 35 37 37 40 52 41 40 38 36 32 31 28 31 32 34 35 34 26 15 23 24 35 45 50 60 73 72 62 63 59 38 45 52 52 52 57
45 39 39 37 34 37 38 42 39 36 36 42 42 40 38 33 27 31 32 32 32 32 36 38 38 32 26 28 20 26 35 55 58 57 29 29 34 36 40 43 46 51 54 57
38 40 42 42 38 35 35 40 39 37 38 41 39 38 37 30 32 32 30 32 30 34 33 35 35 34 38 40 23 26 30 27 23 25 33 33 36 44 53 50 56 58 61 69
60 38 42 43 41 40 39 38 37 44 40 34 31 28 27 29 30 33 31 28 30 30 30 31 31 35 38 47 48 29 40 39 37 31 31 34 49 64 61 59 63 66 68 43
70 58 42 46 41 58 39 36 35 38 40 36 33 27 26 27 28 27 28 29 28 30 31 32 33 35 34 31 54 49 37 39 41 39 44 55 67 68 62 60 53 35 27 25
99 62 52 51 49 44 37 38 38 36 37 34 30 28 26 26 26 26 27 27 30 31 31 31 33 38 32 27 40 40 42 39 40 47 53 58 60 61 48 35 27 22 25 27
85 78 55 62 58 64 46 39 36 40 38 34 31 29 30 29 27 27 29 30 31 29 17 9 30 36 33 30 30 44 36 31 37 47 57 56 42 35 29 25 25 28 31 34
93 98 94 85 91 59 52 39 33 43 42 34 32 30 30 30 28 31 33 32 26 20 20 11 35 43 35 29 31 36 39 36 48 52 41 35 32 28 25 26 29 36 40 42
98 69 82 74 98 89 52 48 40 31 31 30 31 34 32 35 38 34 30 30 31 30 28 16 28 31 30 28 35 45 46 48 44 37 35 34 31 26 27 33 40 46 50 53
79 62 40 54 49 66 56 50 59 61 52 46 46 42 37 47 48 48 42 42 41 38 35 20 25 31 34 36 46 48 46 40 36 37 37 35 31 30 34 41 45 48 55 65
41 31 43 50 52 58 55 57 48 52 57 50 55 46 39 43 46 49 48 47 46 43 38 21 27 32 37 44 50 49 43 38 39 39 38 37 34 35 41 46 54 66 75 77
48 38 45 44 42 44 40 54 67 60 61 56 57 54 54 52 52 52 52 51 50 48 38 25 30 36 43 47 52 51 44 40 40 41 41 40 40 43 50 62 76 81 86 84
44 49 46 44 32 60 49 51 63 50 69 66 69 59 54 54 50 50 52 50 48 49 48 33 34 41 46 52 56 55 51 46 44 44 44 48 54 64 78 92 99 98 97 94
Wind_Speed
17 18 22 16 15 15 19 24 27 20 17 8 11 15 10 4 8 11 19 7 7 5 3 6 8 10 17 26 23 22 22 19 17 25 27 38 42 37 35 29 25 26 25 22
16 26 18 10 14 21 26 17 14 3 6 10 10 9 10 5 8 7 10 2 7 6 6 6 6 9 11 15 17 17 17 21 24 29 32 32 33 31 25 20 24 27 25 22
25 22 13 12 18 19 17 15 15 13 11 10 14 11 12 7 23 11 19 7 4 3 5 7 6 9 10 11 14 16 16 15 19 23 25 26 27 28 24 21 20 18 17 18
29 24 18 25 17 16 19 13 18 10 10 11 8 2 16 15 18 8 19 16 4 5 6 9 10 8 10 12 12 13 14 16 19 20 20 20 20 18 16 17 17 16 15 18
32 23 24 26 20 15 19 19 15 10 13 14 18 6 4 10 24 14 21 19 8 5 8 6 7 11 13 13 13 12 13 15 16 17 18 17 16 17 16 16 17 18 18 17
30 22 22 20 21 17 16 18 14 11 16 13 21 19 11 16 18 19 17 27 18 10 8 11 12 13 15 16 16 17 17 17 18 17 16 14 15 13 14 18 21 17 15 21
31 33 29 25 23 17 18 13 3 5 3 7 10 14 15 9 9 18 20 30 23 18 11 9 15 17 18 18 17 18 20 20 19 19 18 17 18 16 11 12 18 16 21 20
32 26 30 23 25 20 26 22 9 5 2 5 12 6 5 7 10 3 11 18 23 18 16 15 13 13 15 19 20 19 20 18 19 18 19 19 16 13 12 13 19 20 21 20
24 35 20 23 21 25 18 21 23 9 2 5 8 14 4 8 8 12 10 15 14 22 22 20 18 17 19 18 22 22 21 20 21 21 20 21 18 14 14 17 16 20 22 22
31 19 29 26 26 28 30 22 22 13 5 4 9 19 11 24 12 7 10 11 12 13 19 25 24 22 21 23 20 18 23 26 22 23 25 25 25 26 23 20 19 21 21 21
39 26 30 25 23 35 29 26 25 16 9 6 2 4 10 18 13 9 12 13 14 13 12 13 18 29 30 30 28 24 26 36 25 24 26 28 29 31 32 31 24 22 22 20
41 29 34 41 18 32 34 30 24 22 11 7 4 5 10 1 8 10 14 16 14 18 16 15 17 18 18 27 38 41 41 32 19 20 25 28 27 23 26 34 25 24 23 21
35 33 29 22 24 21 34 30 27 29 26 23 10 12 19 10 10 17 10 17 17 18 16 21 18 16 18 25 25 26 26 24 18 23 17 21 26 22 16 21 23 22 20 21
36 39 31 28 17 23 21 26 28 26 28 22 21 18 17 19 14 18 15 16 17 20 18 18 19 16 15 18 21 22 24 21 19 16 22 25 24 21 15 16 15 16 18 21
28 41 46 29 26 28 29 29 29 32 33 27 27 26 29 20 22 23 19 18 14 24 18 16 17 22 24 22 19 20 22 25 24 26 20 16 16 17 19 19 19 20 22 26
33 29 36 42 32 30 30 28 26 29 29 26 25 29 23 17 20 18 19 23 20 22 26 25 23 26 28 29 26 21 22 24 26 24 22 20 21 21 20 21 23 26 29 31
20 35 25 32 34 31 36 36 29 34 27 30 32 27 25 23 30 15 14 17 21 24 23 24 28 29 29 34 34 25 25 24 25 29 28 25 24 23 24 26 28 31 30 30
18 27 37 24 21 14 24 23 26 23 32 26 26 19 19 13 21 24 21 19 19 22 24 27 30 29 30 32 34 30 25 26 29 32 30 28 26 27 30 31 29 30 31 31
20 22 18 23 31 22 40 26 16 21 26 21 21 31 26 20 20 22 26 26 22 21 23 28 31 31 31 32 33 30 25 26 29 31 28 29 33 30 28 30 32 32 30 29
33 12 24 12 15 15 28 29 22 16 30 22 19 19 21 21 24 26 27 24 22 24 27 29 29 28 29 30 31 29 27 26 25 27 28 26 25 27 29 30 30 29 29 30
28 25 23 7 4 15 13 25 30 27 31 19 16 24 21 22 28 23 22 22 23 23 24 24 25 28 29 27 27 28 28 26 25 24 25 25 26 29 30 29 29 29 29 30
20 18 18 28 7 11 6 14 24 39 28 30 26 19 20 20 19 18 19 19 20 23 24 22 23 25 26 25 25 26 26 26 26 25 25 27 29 30 29 29 30 30 30 31
27 24 24 21 26 17 18 27 13 14 23 16 19 20 22 20 21 18 21 20 21 22 23 23 22 24 25 25 25 26 27 27 26 27 28 29 30 31 31 31 33 34 33 33
30 26 25 19 22 24 33 22 26 27 19 22 17 23 25 27 29 29 23 25 22 22 24 23 23 24 26 27 28 29 30 30 30 31 31 32 33 34 34 34 35 33 33 34
26 24 20 20 17 17 19 22 30 37 22 32 14 14 16 16 15 15 18 25 26 24 24 23 24 26 29 30 32 32 33 35 35 34 35 36 36 38 38 37 36 37 37 35
27 29 23 21 18 12 16 19 19 20 24 35 17 22 20 19 17 16 18 21 24 27 26 25 27 29 32 34 36 37 40 41 40 39 39 40 41 41 40 38 37 37 37 34
Wind_Direction
223 228 235 238 223 255 280 286 292 294 267 261 275 257 260 271 184 237 227 251 190 163 147 117 115 114 109 112 117 113 116 131 164 149 152 148 158 162 172 181 196 207 213 219
217 235 240 240 265 269 279 287 289 63 188 233 294 259 253 258 208 247 266 267 205 192 151 143 131 123 120 128 131 133 129 131 134 138 148 159 162 168 179 198 208 211 215 225
223 241 231 241 260 270 278 269 262 282 309 281 288 224 215 175 170 192 250 288 273 151 163 139 142 145 144 141 142 144 142 145 138 148 160 170 180 193 201 204 211 221 226 230
236 241 236 248 239 260 270 260 266 303 277 290 277 255 209 197 215 235 214 246 258 157 192 168 162 171 156 152 156 151 153 158 162 172 176 182 190 195 201 212 223 229 228 231
226 225 236 248 250 257 259 269 278 280 301 299 288 236 270 203 208 226 202 230 254 195 199 213 191 166 173 179 171 174 176 178 178 180 183 189 194 197 209 223 234 238 242 255
239 245 225 249 251 251 250 267 265 276 274 280 268 269 230 225 222 211 238 217 245 244 198 206 202 197 192 186 188 193 196 198 201 200 202 215 200 220 234 229 234 243 243 256
230 244 238 240 246 237 245 253 298 329 271 234 294 288 261 223 230 222 222 215 232 252 236 220 217 216 210 209 201 204 206 206 211 210 218 222 220 208 270 268 255 259 256 268
232 243 235 218 236 231 237 231 215 198 239 301 306 280 297 209 166 153 216 222 219 240 246 235 246 250 246 237 232 221 222 219 220 223 229 228 208 276 252 277 261 251 267 270
221 236 234 235 230 220 232 224 228 217 74 7 275 272 203 168 168 216 198 191 216 231 239 246 248 256 263 266 249 243 235 232 238 243 245 253 248 262 255 256 261 258 259 264
228 232 231 236 233 230 225 229 222 227 132 186 263 247 227 200 192 210 193 202 223 224 231 243 251 257 261 273 275 262 255 243 247 260 264 261 255 249 247 257 267 247 251 258
227 234 239 246 253 214 211 226 238 250 222 190 233 272 179 195 196 191 190 203 194 204 218 231 240 246 254 265 262 254 250 244 239 255 259 268 263 248 246 251 260 253 248 260
223 225 249 252 249 229 223 220 236 229 231 215 133 229 167 354 204 205 224 222 233 236 232 225 232 243 245 248 249 252 262 278 237 247 253 268 267 229 251 267 266 261 267 257
217 217 243 262 245 229 215 221 230 237 239 235 201 232 212 237 241 228 208 222 243 240 252 259 252 223 235 245 254 258 257 269 267 260 250 263 260 258 263 251 251 258 263 266
221 221 228 235 230 228 218 225 236 239 231 233 223 229 241 232 266 238 250 234 229 246 243 242 260 276 263 246 261 261 256 254 253 246 256 259 257 264 270 261 260 261 273 277
212 219 223 233 243 244 230 241 236 234 235 236 251 257 263 256 265 262 245 238 240 240 218 225 253 272 279 283 259 266 266 258 251 249 260 255 254 262 267 271 270 274 280 284
224 225 228 235 236 238 252 243 246 232 235 237 248 242 234 268 264 243 284 231 239 224 232 247 255 266 266 270 277 259 255 259 256 251 257 260 263 270 276 283 281 278 278 276
238 225 217 229 235 242 257 247 244 247 247 252 241 252 256 250 267 226 255 244 227 236 245 260 278 278 263 260 267 269 258 257 257 257 258 263 268 270 273 271 270 274 274 276
225 235 219 224 223 223 245 250 230 251 252 260 242 243 239 271 254 260 261 255 254 248 260 269 273 268 273 265 259 261 262 257 262 258 258 261 259 260 267 273 273 275 278 281
257 217 206 207 219 235 239 233 237 255 258 256 260 251 252 257 259 278 257 254 255 257 269 279 278 270 273 265 255 260 260 256 256 255 257 259 259 263 270 276 278 279 280 283
237 233 201 197 209 229 243 237 231 247 266 249 250 254 269 260 262 268 254 253 263 277 283 280 275 269 270 264 255 254 256 256 252 250 251 251 258 267 271 273 275 278 282 283
217 224 231 242 284 246 260 248 241 246 250 255 259 253 261 264 259 261 250 265 277 285 290 282 268 269 273 262 256 254 252 251 246 243 249 260 267 270 272 275 277 280 283 286
253 202 202 226 270 242 189 212 229 250 254 257 258 250 255 271 263 259 269 284 293 293 295 286 270 270 268 259 250 248 249 245 247 253 260 266 272 275 274 274 276 279 282 283
248 231 230 228 239 226 219 231 224 234 244 245 250 247 245 259 253 267 278 293 295 297 299 292 277 270 265 255 250 249 248 251 256 258 265 272 275 275 275 276 278 281 285 284
234 243 241 241 252 249 236 247 226 237 246 239 283 271 260 259 254 257 274 287 291 293 297 288 276 270 263 255 252 250 251 254 256 263 269 273 276 275 274 277 279 280 278 274
229 224 229 244 254 260 277 270 274 231 233 236 258 285 269 266 275 274 274 276 282 284 288 284 275 268 260 257 256 254 254 256 259 263 267 270 271 273 274 273 275 276 277 274
224 229 227 240 272 273 280 281 299 279 257 220 274 269 271 270 284 288 280 286 288 280 280 279 275 266 260 257 254 253 254 257 260 262 263 264 263 264 265 268 272 271 268 262